Torna al catalogo

SL-16 DEB

AttivoLEO
NORAD 22347·DEBRIS·🇷🇺 Russia

Lanciato Dec 25, 1992 da Baikonur Cosmodrome

Loading…

Prossimi Passaggi (prossime 24 ore)

TLE

AggiornatoSource: Space-Track

Epoca: Sep 14, 2026, 10:07 UTC

1 22347U 92093AL  26257.42164826  .00002204  00000-0  11921-2 0  9990
2 22347  70.8337 255.0546 0157841 253.9903 271.2163 14.07520636702692

Traccia SL-16 DEB in tempo reale con AllMySat

Download on the App Store